星链-30354 (STARLINK-30354 )

导读 | 星芒AI

STARLINK-30354 是 SpaceX Starlink 项目中的第 30354 颗卫星,属于其低轨卫星互联网星座的一部分。该卫星于 2024 年发射,旨在为全球用户提供高速、低延迟的互联网服务。它运行在约 550 公里的近地轨道上,采用先进的推进和通信技术,支持全球范围内的宽带接入。Starlink 卫星群致力于改善偏远地区的网络覆盖,推动全球数字连接。

基本信息
目录编号:
57772
目录名称:
STARLINK-30354
国际标识:
2023-134B
轨道中心:
EARTH
卫星名称:
星链-30354
卫星全名:
星链-30354 (STARLINK-30354 )
卫星状态:
在轨 (已飞行837 天)
发射日期:
2023-09-04 UTC
国别 :
美国 (US)
星等 :
--
轨道信息
数据来源 国际轨道数据 AOE轨道数据
星历时间 2025-12-18T20:17:23+0800
14小时前
查看轨道信息
2025-12-14T21:00:00+0800
4天前
查看轨道信息
半长轴 6937.206km 6937.163km
偏心率 0.0001068 0.0001617
轨道倾角 43.006° 43.003°
近地点辐角 264.873° 262.548°
升交点赤经 278.295° 299.870°
平近点角 95.199° 196.507°
近地点 558.33km 557.906km
远地点 559.812km 560.15km
周期 95.838分钟 95.837分钟
每日圈数 15.025395 15.025537
详细信息
固有亮度:
5
最大亮度:
0.3
卫星平台:
Starlink v2.0 mini
覆盖范围:
全球
运营商:
太空探索技术公司
运营商所在国:
美国
制造商(研发单位):
太空探索技术公司
制造商所在国:
美国
使用方式:
暂无
卫星简介
星链(Starlink)计划是由太空探索技术公司(SpaceX)提出的一个巨型低轨卫星互联网星座项目,计划在2019年至2024年间在太空搭建由约1.2万颗卫星组成的“星链”网络,其中1584颗将部署在地球上空550千米处的近地轨道,并从2020年开始工作。该卫星仍在工作。
2D轨道图
3D轨道图
轨道高度分析图
轨道倾角分析图
轨道综合分析图
查看轨道综合分析图